This is the latest recevied weather packets stored in our database for station/object p43g-13. If no packets are shown the sender has not sent any weather packets the latest 10 day(s).
| Time | Temp. | Humidity | Pressure | Rain* | Wind** | Luminosity | Snow |
|---|---|---|---|---|---|---|---|
| 1787606610 | 30.56° C | 80% | 1009.3 hPa | 0 mm | - | 155 W/m² | - |
| 1787606310 | 31.11° C | 79% | 1009.4 hPa | 0 mm | - | 191 W/m² | - |
| 1787606010 | 31.11° C | 79% | 1009.2 hPa | 0 mm | - | 195 W/m² | - |
| 1787605710 | 31.11° C | 78% | 1009.2 hPa | 0 mm | - | 215 W/m² | - |
| 1787605410 | 31.11° C | 78% | 1009.1 hPa | 0 mm | - | 237 W/m² | - |
| 1787605110 | 31.11° C | 78% | 1009.4 hPa | 0 mm | - | 260 W/m² | - |
| 1787604810 | 31.67° C | 77% | 1009.4 hPa | 0 mm | - | 231 W/m² | - |
| 1787604509 | 31.67° C | 77% | 1009.3 hPa | 0 mm | - | 302 W/m² | - |
| 1787604210 | 31.11° C | 77% | 1009.4 hPa | 0 mm | - | 334 W/m² | - |
| 1787603910 | 31.67° C | 76% | 1009.5 hPa | 0 mm | - | 350 W/m² | - |
| 1787603610 | 31.67° C | 74% | 1009.4 hPa | 0 mm | - | 365 W/m² | - |
| 1787603310 | 31.67° C | 75% | 1009.4 hPa | 0 mm | - | 381 W/m² | - |
| 1787603010 | 31.67° C | 76% | 1009.4 hPa | 0 mm | - | 343 W/m² | - |
| 1787602710 | 31.67° C | 76% | 1009.3 hPa | 0 mm | - | 427 W/m² | - |
| 1787602410 | 31.67° C | 77% | 1009.5 hPa | 0 mm | - | 458 W/m² | - |
| 1787602110 | 31.67° C | 76% | 1009.5 hPa | 0 mm | - | 490 W/m² | - |
| 1787601810 | 31.67° C | 76% | 1009.5 hPa | 0 mm | - | 516 W/m² | - |
| 1787601510 | 31.67° C | 77% | 1009.7 hPa | 0 mm | - | 529 W/m² | - |
| 1787601211 | 31.67° C | 75% | 1009.6 hPa | 0 mm | - | 543 W/m² | - |
| 1787600911 | 31.67° C | 76% | 1009.4 hPa | 0 mm | - | 267 W/m² | - |
| 1787600610 | 31.67° C | 75% | 1009.7 hPa | 0 mm | - | 607 W/m² | - |
| 1787600311 | 31.67° C | 75% | 1009.6 hPa | 0 mm | - | 617 W/m² | - |
| 1787600010 | 31.67° C | 75% | 1009.8 hPa | 0 mm | - | 628 W/m² | - |
| 1787599710 | 31.67° C | 75% | 1009.9 hPa | 0 mm | - | 520 W/m² | - |
| 1787599410 | 31.67° C | 75% | 1010.2 hPa | 0 mm | - | 663 W/m² | - |
* Rain latest hour (hover to see other rain measurements)
** Current wind speed in m/s (hover to see current wind gust speed)